Zurück zum Katalog

THOR ABLESTAR DEB

AktivLEO
NORAD 351·DEBRIS·🇺🇸 United States

Gestartet Jun 29, 1961 von Cape Canaveral Space Force Station

Loading…

Nächste Überflüge (nächste 24 Stunden)

TLE

AktuellSource: Space-Track

Epoche: Sep 6, 2026, 06:31 UTC

1 00351U 61015DR  26249.27159784  .00005172  00000-0  57468-3 0  9996
2 00351  66.7382 213.7459 0030416 250.6094 109.1746 14.87715089389798

Verfolge THOR ABLESTAR DEB in Echtzeit mit AllMySat

Download on the App Store